Погода в Петрокрепости

Погода в Петрокрепости : погода сейчас, прогноз погоды и архив. Всё, что Вы хотите узнать о погоде в Петрокрепости!

Хотите узнать прогноз погоды в Петрокрепости? Тогда Вам сюда: Погода в Петрокрепости

Поиск расширенной информации на нашем сайте:

Другие новости

Новости СМИ2

Главная страница сайта

Новости сайта

03.07.2017

Напоминаем, что на нашем специализированном сайте Метеоцентр.Азия вы можете получить высокодетализированные автоматические прогнозы погоды по пунктам России, СНГ и мира в авиационном формате (включающие направление и скорость ветра, видимость, явления погоды, количество и форму облачности, нижнюю и верхнюю границу облачности).


Погода в Петрокрепости - сегодня

Время (UTC), дата Ветер
(°,м/с) 
Видим.   Явления Облачность Т
(°С)
Тd
(°С)
f(%) Тe
(°С)
Pmin
(гПа)
dP
(гПа)
Po
(мм)
O2
(г/м3)
Тmin Tmax R s Состояние
почвы
21 14.04.18 200 (Ю) 20000 м    ясно 
+3.5 -2.6 64 +4  1022.7  -0.4  766  305           
00 15.04.18 240 (ЮЗ) 20000 м    ясно 
+0.1 -1.3 90 +1  1021.6  -1.1  765  308           
03 15.04.18 360 (С) 20000 м    ясно 
-1.1 -1.6 96 -1  1020.8  -0.8  764  309  -1.4         
06 15.04.18 030 (СВ) 20000 м    ясно 
+5.4 -0.7 65 +6  1020.7  0.1  764  302  -1.4         
09 15.04.18 030 (СВ) 20000 м    ясно 
+11.8 -3.4 34 +13  1020.9  0.3  764  296           
12 15.04.18 110 (В) 20000 м    ясно 
+9 +1.6 60 +10  1020.7  -0.2  764  298           
15 15.04.18 070 (В) 20000 м    ясно 
+11.5 -4.4 33 +13  1019.8  -0.9  763  296           
18 15.04.18 тихо ()   20000 м    ясно 
+2.9 -0.6 78 +3  1019.6  -0.3  763  304    +15.9       
21 15.04.18 тихо ()   20000 м    ясно 
+0.6 -2 83 +1  1019.4  -0.2  763  307           
00 16.04.18 тихо ()   20000 м    3/0 средняя 
[Ac trans]
-0.5 -0.8 98 -1  1018.7  -0.7  763  308           
09 16.04.18 тихо ()   20000 м    5/0 верхняя 
[Ci]
+10.7 +2 55 +11  1017.6  762  295           
09 17.04.18 тихо ()   4000 м  в посл. час ливневой дождь  10/0 средняя 
[Ac und]
+9.7 +9.7 100 +10  1013.8  0.2  759  294           
21 17.04.18 050 (СВ) 0500 м  слаб. дождь{туман}  ?/?  
+8.8 +8.8 100 +10  1009.4  -1  756  293           
03 18.04.18 010 (С) 10 км  слаб. дождь  10/10 180 м 
[Frnb|Ns]
+3.9 +3.9 100 +3  1010.2  0.7  756  300  +3.9    18     
09 18.04.18 360 (С) 20000 м  {дождь}  10/4 600 м средняя 
[Sc|Ac und]
+5.4 +4.7 95 +5  1013.9  2.1  759  299           
15 18.04.18 360 (С) 20000 м    3/0 средняя 
[Ac trans]
+12.7 -0.6 40 +13  1015.7  0.2  760  293         
21 18.04.18 230 (ЮЗ) 20000 м    3/0 средняя 
[Ac trans]
+3.8 +3.8 100 +5  1016.4  0.2  761  302           
09 19.04.18 080 (В) 20000 м    10/0 верхняя 
[Ci]
+11 +2.9 57 +11  1017.2  1.2  761  294           
12 19.04.18 100 (В) 20000 м    3/0 средняя 
[Ac trans]
+13 +2.7 50 +14  1017.8  0.6  762  293           
15 19.04.18 010 (С) 20000 м    8/0 средняя, верхняя 
[Ac trans|Ci]
+15 -1.8 31 +15  1018.3  0.5  762  291           
21 19.04.18 300 (СЗ) 20000 м    3/0 средняя 
[Ac trans]
+5 +1.3 77 +6  1019.7  0.5  763  302           
00 20.04.18 240 (ЮЗ) 20000 м    ясно 
+3.6 +0.8 82 +4  1019.7  763  303           
09 20.04.18 250 (З) 20000 м    10/0 средняя 
[Ac und]
+9.9 +1.8 57 +10  1017.7  -1.5  762  296           
12 20.04.18 250 (З) 20000 м    10/0 средняя 
[Ac und]
+10.8 +2.1 55 +11  1015.2  -2.4  760  294           
21 20.04.18 230 (ЮЗ) 20000 м    10/0 средняя 
[Ac und]
+6.2 +3.6 83 +6  1005  -1.7  752  296           
Время (UTC), дата Ветер
(°,м/с) 
Видим.   Явления Облачность Т
(°С)
Тd
(°С)
f(%) Тe
(°С)
Pmin
(гПа)
dP
(гПа)
Po
(мм)
O2
(г/м3)
Тmin Tmax R s Состояние
почвы

Для получения пояснительной информации подведите курсор к названию столбца.

ПОГОДА в Петрокрепости - архив

Всё, что Вы хотите узнать о погоде в Петрокрепости - удобно и подробно!

Выберите нужную дату (начиная с 1 января 2015* года) и нажмите кнопку "Найти".
Будут отображены архивные сводки погоды по пункту Петрокрепость, начиная с указанной даты.


Отображать данные в формате CSV (для использования в таблицах Excel)


Внимание! Наш архив погоды предназначен исключительно для личного некоммерческого использования в познавательных целях. Если Вам необходимы официальные справки о состоянии погоды (для производственных, юридических, коммерческих и т.п. целей), обращайтесь в органы Росгидромета.

*Примечание: данная дата относится к архиву по метеостанциям СССР (Россия, СНГ, Балтия).
Архив по метеостанциям Зарубежной Европы и Азии (кроме Китая) хранится 10 дней, по другим регионам земного шара (Китай, Африка, Америка, Австралия, Океания) - 1 день.

Петрокрепость - район местоположения метеостанции


Название, широта, долгота, высота метеостанции:
Петрокрепость 59.9°ш. 31°д. 17 м над ур. моря [Российская Федерация]

Дополнительная информация

В oтличие oт бoльшинства пoгoдных сайтoв мы публикуем пoдрoбную метеoинфoрмацию в детальнoм прoфессиoнальнoм фoрмате.

Характеристики температуры и влажнoсти вoздуха измеряются на высoте 2 м в тени вдали oт зданий и деревьев.
Скoрoсть ветра измеряется на высoте 10 м (на урoвне рoста челoвека скoрoсть ветра ниже в 1.5-2 раза). Если метеoстанция нахoдится в гoрoде или в лесу, тo скoрoсть ветра занижена на 2-4 м/с пo сравнению с oткрытым местoм. Скoрoсть ветра над акватoриями крупных рек и oзёр, а также на вершинах хoлмoв на 2-5 м/с выше, чем в oбычных услoвиях.
Атмoсфернoе давление в разных тoчках местнoсти мoжет значительнo oтличаться oт давления на метеoстанции, в зависимoсти oт услoвий рельефа (при пoдъёме на 10 м давление пoнижается примернo на 1 мм рт.ст.).